Home   Weather   Dormagen   Past weeks

Flag for Germany Past Weather in Dormagen, North Rhine-Westphalia, Germany — Yesterday and Last 2 Weeks

48 °F

Scattered clouds.

Feels Like: 48 °F
Forecast: 46 / 56 °F
Wind: 2 mph from North

Location: Duesseldorf

Current Time: Oct 23, 2016 at 4:14:09 PM

Latest Report: Oct 23, 2016 at 3:20 PM

Visibility: N/A

Pressure: 29.92 "Hg

Humidity: 82%

Dew Point: 43 °F

Location of DormagenLocation

Past Weather in Dormagen — Graph


Dormagen Temperature Yesterday

Maximum temperature yesterday: 50 °F (at 1:20 PM)
Minimum temperature yesterday: 41 °F (at 10:50 PM)
Average temperature yesterday: 47 °F

High & Low Weather Summary for the Past Weeks

High66 °F (Oct 16, 2:20 PM)100% (Oct 8, 10:20 PM)30.30 "Hg (Oct 8, 10:20 PM)
Low32 °F (Oct 23, 6:20 AM)51% (Oct 8, 2:20 PM)29.65 "Hg (Oct 15, 1:20 AM)
Average49 °F86%30.04 "Hg
* Reported Oct 8 2:20 PM — Oct 23 2:50 PM, Dormagen, Weather by CustomWeather, © 2016

Note: Actual official high and low records may vary slightly from our data, if they occured in-between our weather recording intervals... More about our weather records


Dormagen Weather History for the Previous 24 Hours

Scroll right to see more
Time TempWeatherWind HumidityBarometerVisibility
2:50 PM
Sun, Oct 23
46 °FScattered clouds.2 mph82%29.92 "HgN/A
2:20 PM45 °FPartly sunny.6 mph87%29.92 "Hg5 mi
1:50 PM43 °FPartly sunny.6 mph93%29.92 "Hg4 mi
1:20 PM43 °FFog.8 mph93%29.92 "Hg3 mi
12:50 PM43 °FFog.7 mph93%29.92 "Hg3 mi
12:20 PM43 °FFog.8 mph93%29.95 "Hg3 mi
11:50 AM41 °FFog.7 mph93%29.95 "Hg3 mi
11:20 AM39 °FFog.5 mph100%29.95 "Hg3 mi
10:50 AM41 °FFog.5 mph87%29.95 "Hg3 mi
10:20 AM37 °FFog.1 mph100%29.95 "Hg0 mi
9:50 AM36 °FFog.1 mph93%29.95 "Hg0 mi
9:20 AM34 °FFog.1 mph93%29.95 "Hg1 mi
8:50 AM32 °FChilly.1 mph100%29.95 "Hg1 mi
8:20 AM32 °FChilly.1 mph93%29.92 "Hg3 mi
7:50 AM32 °FChilly.1 mph100%29.92 "Hg3 mi
7:20 AM32 °FChilly.2 mph100%29.92 "Hg3 mi
6:50 AM32 °FChilly.2 mph100%29.92 "Hg3 mi
6:20 AM32 °FIce fog.2 mph100%29.92 "Hg2 mi
5:50 AM34 °FFog.2 mph100%29.92 "Hg1 mi
5:20 AM34 °FFog.3 mph100%29.92 "Hg4 mi
4:50 AM34 °FFog.2 mph100%29.92 "Hg6 mi
4:20 AM34 °FFog.2 mph100%29.95 "Hg6 mi
3:50 AM36 °FFog.2 mph100%29.95 "HgN/A
3:20 AM34 °FFog.2 mph100%29.95 "Hg4 mi
2:50 AM34 °FFog.2 mph100%29.95 "Hg2 mi
2:20 AM36 °FFog.3 mph93%29.95 "Hg0 mi
1:50 AM36 °FFog.1 mph100%29.95 "Hg0 mi
1:20 AM36 °FFog.2 mph100%29.95 "Hg1 mi
12:50 AM39 °FFog.2 mph93%29.98 "Hg3 mi
12:20 AM39 °FFog.2 mph100%29.95 "HgN/A
11:50 PM
Sat, Oct 22
41 °FFog.1 mph100%29.95 "HgN/A
11:20 PM41 °FFog.2 mph100%29.98 "HgN/A
10:50 PM41 °FFog.3 mph100%29.98 "HgN/A
10:20 PM43 °FClear.2 mph100%29.98 "Hg10 mi
9:50 PM45 °FClear.3 mph93%29.98 "Hg10 mi
9:20 PM45 °FClear.2 mph93%29.98 "Hg10 mi
8:50 PM46 °FPassing clouds.3 mph87%29.98 "HgN/A
8:20 PM45 °FPassing clouds.3 mph93%29.98 "HgN/A
7:50 PM46 °FPassing clouds.2 mph87%29.98 "HgN/A
7:20 PM46 °FPartly cloudy.3 mph87%29.98 "HgN/A
6:50 PM46 °FPassing clouds.2 mph87%29.98 "HgN/A
6:20 PM46 °FPartly sunny.3 mph87%29.95 "HgN/A
5:50 PM48 °FPartly sunny.3 mph82%29.95 "HgN/A
5:20 PM48 °FBroken clouds.3 mph82%29.95 "HgN/A
4:50 PM46 °FBroken clouds.5 mph87%29.95 "HgN/A
4:20 PM48 °FBroken clouds.7 mph76%29.95 "HgN/A
Weather by CustomWeather, © 2016

See weather overviewHow to use our weather pages